Starlink 31419

operational
NORAD ID: 59368 Int'l Des: 2024-060 Owner: SPXS Country: US Constellation: starlink
LEOCIRCULAR

About Starlink 31419

Description loading...

Live Position

Loading 3D Globe...

Upcoming Passes

Altitude History

Altitude vs Time

uPlot chart will show altitude changes over time

Two-Line Element Set

1 59368U 24060W 25259.10564563 .00001756 00000-0 73313-4 0 9996
2 59368 43.0010 165.7100 0001096 284.3150 75.7580 15.27583176 83367
Epoch: Sep 16, 2025 • Age: 17 hours

Current Status

Altitude 495.2 km
Velocity 7.62 km/s
Sub-Earth Point -42.22°S, 158.57°E
Launch Date Mar 31, 2024
Age 1.4 years
Type internet

Technical Details

Classification Payload
Mass 730.00 kg
Dry Mass 700.00 kg
Total Mass 730.00 kg
Length 0.30 m
Diameter 4.10 m
Span 29.00 m
Shape Box + pan
Manufacturer SPXS
Bus Type Starlink V2M
Phase Status In Orbit
Owner/State SPXS/US

Large Constellations

Loading constellations...